STARLINK-33814, 63582

Orbit data source: Space-Track

STARLINK-33814, 63582 is a payload satellite owned by SpaceX/Seattle (US) in LEO that was launched on Mon, 14 Apr 2025 UTC via an FALCON 9 launch vehicle from the Air Force Eastern Test Range (AFETR). Payload-class satellites include a variety of spacecraft equipped with specific instruments for various scientific and technological missions. These include communications satellites like Starlink; space stations such as the ISS; scientific satellites like the Hubble; Earth observation satellites from companies like Planet Labs, Umbra, and HawkEye 360; GPS; miniature CubeSats for education and research; and military/defense satellites.

Loading next visibility...
Identifier
63582, 2025-076P
Orbit
LEO
Country
Flag of USUS
Related business
Manufacturer
SpaceX/Seattle
Mission
Operational Commercial Communications
Bus & Motor
STARLINK V2MO, Unknown motor
Mass
575 kg wet, ~530 kg dry
Launch date (UTC)
2025-04-14 (8 months ago)
Launch vehicle
FALCON 9
Launch site
Air Force Eastern Test Range (AFETR)
Object type
Payload
Rocket body
Debris
Shape & HBR
Box + 2 Pan, 17.7 m
Radar Cross Section
36.964 m², Large (>1 m²)

Expand to show TLE details & history
Last TLE update: 15 hours ago

TLE from 15 hours ago
0 STARLINK-33814
1 63582U 25076P   25347.96964435  .00054257  00000-0  19670-2 0  9999
2 63582  43.0011  85.5351 0000725 319.0684  41.0113 15.27576078 38725
Epoch: 2025-12-13T23:16Z
TLE epoch observation values (Epoch: 2025-12-13T23:16:17.271Z)
Latitude
-0.00004°
Longitude
13.5738°
Altitude
482.461 km
Speed
7.626 km/s
True Right ascension
05h 42m 08s
True Declination
0° 00' 00"
Sunlit
Object was in full shadow at epoch
Visualization orbit readout
Latitude
Unknown
Longitude
Unknown
Altitude
Unknown
Speed
Unknown
Apparent Right ascension
Unknown
Apparent Declination
Unknown
Sunlit
N/A
Visualization observer readout
Local Sidereal Time
13:02:39
Azimuth
Unknown
Elevation
Unknown
Doppler factor
Unknown
Orbital elements
Apogee altitude
485.503 km
Perigee altitude
484.508 km
Semi-major axis
6,863.143 km
Eccentricity
0.00007
Inclination
43.0011°
RAAN
85.5351°
Arg. of periapsis
319.0684°
True anomaly
41.01675°
Mean anomaly
41.0113°
Eccentric anomaly
41.01403°
Mean motion
3.81732 °/min
Orbital period
94.31 mins
BSTAR
0.001967
Loading maneuver chart data...
Computing Atmospheric mass density...
Loading historical data...
Loading historical data...
Loading historical data...
Loading historical data...
Loading historical data...
Loading historical data...
Loading historical data...

Documentation

Showing up to 5 results
|